STARLINK-31022 (58633 NORAD) Tracking and Keplerian Element Data

This shows tracking and keplerian element data for the satellite.

Feedback or suggestion? Click here.




ElementValue
Catalog58633
NameSTARLINK-31022
Epoch Orbit456
Epoch Day13.25002315
Epoch Year2024
RAAN183.7231
Inclination43.0013
Eccentricity0.0001513
Argument of Perigee261.481
Mean Anonmoly10.3776
Mean Motion15.52626739
Decay Rate-0.01740489
L11 58633U 23203R 24013.25002315 -.01740489 00000+0 -30923-1 0 9995
L22 58633 43.0013 183.7231 0001513 261.4810 10.3776 15.52626739 4560



Live tracking and technical data element details for STARLINK-31022 (NORAD 58633). STARLINK-31022 can be tracked NOW for your location showing map with azimuth and elevation plus other details from your city location.







IsCatalogInMostPopularTable: catalog: 58633, numindb: 23
Update: records affected: 1



GetName: 58633 STARLINK-31022

Hit Count: updated at: Wed, 17 Apr 2024 03:06:25 GMT